Location: Edinburgh
(55.9500°N, 3.1600°W)
Time: 21:26:19
(UTC+00:00)

Vanguard 1 Rocket - Visible Passes

Search period start: 17 December 2017 00:00
Search period end: 27 December 2017 00:00
Orbit: 656 x 4222 km, 34.3° (Epoch: 16 December)

Date Brightness Start Highest point End Pass type
(mag) Time Alt. Az. Time Alt. Az. Time Alt. Az.
17 Dec 10.5 18:01:44 10° SW 18:10:50 29° SSE 18:25:28 10° ESE visible
17 Dec 10.8 20:25:16 10° WSW 20:36:54 29° SSW 20:43:13 25° SSE visible
17 Dec 11.3 22:53:00 10° WSW 23:00:32 17° SW 23:00:32 17° SW visible
18 Dec 10.5 16:52:28 10° SSW 16:59:46 23° SSE 17:10:57 10° ESE visible
18 Dec 10.6 19:14:42 10° SW 19:24:53 30° S 19:36:21 17° SE visible
18 Dec 11.1 21:40:09 10° WSW 21:51:25 22° SSW 21:53:41 22° SSW visible
19 Dec 10.5 18:04:42 10° SW 18:13:18 28° S 18:27:07 10° ESE visible
19 Dec 10.9 20:28:38 10° WSW 20:39:16 25° SSW 20:46:56 20° SSE visible
19 Dec 11.5 22:58:31 10° WSW 23:04:17 13° SW 23:04:17 13° SW visible
20 Dec 10.4 16:55:16 10° SSW 17:02:14 23° SSE 17:12:58 10° ESE visible
20 Dec 10.7 19:17:55 10° WSW 19:27:23 27° S 19:40:20 13° SE visible
20 Dec 11.2 21:44:17 10° WSW 21:53:42 18° SSW 21:57:41 17° SSW visible
21 Dec 10.5 18:07:48 10° SW 18:15:53 26° S 18:28:38 10° SE visible
21 Dec 11.0 20:32:17 10° WSW 20:41:43 21° SSW 20:51:16 15° S visible
22 Dec 10.4 16:58:13 10° SW 17:04:48 23° SSE 17:14:52 10° ESE visible
22 Dec 10.8 19:21:20 10° WSW 19:29:56 23° S 19:42:55 10° SSE visible
22 Dec 11.4 21:49:32 10° SW 21:56:02 13° SSW 22:02:27 11° SSW visible
23 Dec 10.6 18:11:03 10° SW 18:18:30 23° S 18:29:56 10° SE visible
23 Dec 11.1 20:36:25 10° WSW 20:44:13 17° SSW 20:54:37 10° S visible
24 Dec 10.5 17:01:20 10° SW 17:07:27 21° S 17:16:36 10° SE visible
24 Dec 10.9 19:25:01 10° SW 19:32:33 19° SSW 19:43:19 10° SSE visible
25 Dec 10.7 18:14:31 10° SW 18:21:12 20° S 18:30:59 10° SSE visible
25 Dec 11.3 20:41:42 10° SW 20:46:44 13° SSW 20:52:47 10° S visible
26 Dec 10.5 17:04:37 10° SW 17:10:11 19° S 17:18:10 10° SE visible
26 Dec 11.0 19:29:15 10° SW 19:35:13 15° SSW 19:43:04 10° S visible
